| time (UTC) | temp F | wind direction | speed knots | gust knots | rain 1hr in | rain 24hr in | rain mn in | humidity % | barometer mb |
| 20260504013901 | 59 | 183 | 4.3 | 7.0 | 0.00 | 0.00 | 0.00 | 60 | 1009.3 |
| 20260504012901 | 60 | 178 | 3.5 | 5.2 | 0.00 | 0.00 | 0.00 | 60 | 1009.2 |
| 20260504011902 | 60 | 186 | 3.5 | 5.2 | 0.00 | 0.00 | 0.00 | 59 | 1009.0 |
| 20260504010901 | 61 | 183 | 5.2 | 5.2 | 0.00 | 0.00 | 0.00 | 58 | 1009.1 |
| 20260504005902 | 61 | 157 | 3.5 | 4.3 | 0.00 | 0.00 | 0.00 | 57 | 1009.2 |
| 20260504004902 | 62 | 194 | 4.3 | 6.1 | 0.00 | 0.00 | 0.00 | 56 | 1009.1 |
| 20260504003902 | 62 | 180 | 4.3 | 5.2 | 0.00 | 0.00 | 0.00 | 56 | 1009.0 |
| 20260504002901 | 63 | 186 | 4.3 | 5.2 | 0.00 | 0.00 | 0.00 | 55 | 1009.0 |
| 20260504001901 | 63 | 176 | 4.3 | 6.1 | 0.00 | 0.00 | 0.00 | 54 | 1009.0 |
| 20260504000902 | 64 | 180 | 5.2 | 5.2 | 0.00 | 0.00 | 0.00 | 53 | 1009.0 |
| 20260503235901 | 64 | 197 | 5.2 | 6.1 | 0.00 | 0.00 | 0.00 | 53 | 1008.9 |
| 20260503234901 | 65 | 202 | 6.1 | 10.4 | 0.00 | 0.00 | 0.00 | 50 | 1008.9 |
| 20260503233902 | 65 | 186 | 7.0 | 9.6 | 0.00 | 0.00 | 0.00 | 49 | 1009.0 |
| 20260503232902 | 65 | 206 | 7.0 | 8.7 | 0.00 | 0.00 | 0.00 | 50 | 1009.1 |
| 20260503231901 | 65 | 197 | 6.1 | 7.8 | 0.00 | 0.00 | 0.00 | 52 | 1009.2 |
| 20260503230902 | 65 | 192 | 7.0 | 7.0 | 0.00 | 0.00 | 0.00 | 51 | 1009.2 |
| 20260503225901 | 65 | 173 | 7.0 | 11.3 | 0.00 | 0.00 | 0.00 | 51 | 1009.2 |
| 20260503224901 | 64 | 201 | 7.0 | 13.9 | 0.00 | 0.00 | 0.00 | 51 | 1009.3 |
| 20260503223901 | 64 | 191 | 7.0 | 10.4 | 0.00 | 0.00 | 0.00 | 51 | 1009.5 |
| 20260503222901 | 65 | 188 | 7.8 | 10.4 | 0.00 | 0.00 | 0.00 | 50 | 1009.2 |
| 20260503221901 | 64 | 187 | 8.7 | 13.9 | 0.00 | 0.00 | 0.00 | 52 | 1009.3 |
| 20260503220902 | 63 | 184 | 8.7 | 8.7 | 0.00 | 0.00 | 0.00 | 53 | 1009.5 |
| 20260503215902 | 63 | 160 | 8.7 | 10.4 | 0.00 | 0.00 | 0.00 | 53 | 1009.7 |
| 20260503214902 | 63 | 189 | 9.6 | 11.3 | 0.00 | 0.00 | 0.00 | 53 | 1009.5 |
| 20260503213902 | 63 | 185 | 8.7 | 11.3 | 0.00 | 0.00 | 0.00 | 51 | 1009.7 |
| 20260503212902 | 62 | 193 | 8.7 | 11.3 | 0.00 | 0.00 | 0.00 | 54 | 1010.3 |
| 20260503211903 | 63 | 186 | 8.7 | 12.2 | 0.00 | 0.00 | 0.00 | 52 | 1010.4 |
| 20260503210901 | 63 | 182 | 8.7 | 8.7 | 0.00 | 0.00 | 0.00 | 52 | 1010.4 |
| 20260503205902 | 62 | 181 | 8.7 | 13.0 | 0.00 | 0.00 | 0.00 | 52 | 1010.6 |
| 20260503204901 | 63 | 181 | 7.8 | 9.6 | 0.00 | 0.00 | 0.00 | 52 | 1010.4 |
| 20260503203902 | 62 | 186 | 7.8 | 14.8 | 0.00 | 0.00 | 0.00 | 53 | 1010.4 |
| 20260503202902 | 61 | 149 | 7.0 | 11.3 | 0.00 | 0.00 | 0.00 | 54 | 1011.0 |
| 20260503201901 | 61 | 200 | 8.7 | 13.0 | 0.00 | 0.00 | 0.00 | 53 | 1011.4 |
| 20260503200901 | 61 | 180 | 7.8 | 7.8 | 0.00 | 0.00 | 0.00 | 52 | 1011.7 |
| 20260503195902 | 61 | 176 | 7.8 | 12.2 | 0.00 | 0.00 | 0.00 | 52 | 1011.7 |
| 20260503194901 | 61 | 175 | 7.0 | 11.3 | 0.00 | 0.00 | 0.00 | 51 | 1012.4 |
| 20260503193901 | 62 | 189 | 7.0 | 10.4 | 0.00 | 0.00 | 0.00 | 51 | 1012.5 |
| 20260503192902 | 61 | 198 | 7.0 | 13.0 | 0.00 | 0.00 | 0.00 | 51 | 1013.4 |
| 20260503191901 | 61 | 179 | 7.0 | 7.8 | 0.00 | 0.00 | 0.00 | 51 | 1013.6 |
| 20260503190901 | 62 | 197 | 7.0 | 7.0 | 0.00 | 0.00 | 0.00 | 52 | 1013.7 |
| 20260503185901 | 60 | 180 | 7.0 | 11.3 | 0.00 | 0.00 | 0.00 | 53 | 1014.3 |
| 20260503184902 | 60 | 187 | 6.1 | 8.7 | 0.00 | 0.00 | 0.00 | 51 | 1014.6 |
| 20260503183901 | 60 | 190 | 7.0 | 10.4 | 0.00 | 0.00 | 0.00 | 50 | 1014.6 |
| 20260503182901 | 60 | 176 | 7.0 | 9.6 | 0.00 | 0.00 | 0.00 | 49 | 1014.5 |
| 20260503181901 | 61 | 172 | 6.1 | 10.4 | 0.00 | 0.00 | 0.00 | 49 | 1014.4 |
| 20260503180901 | 62 | 185 | 7.0 | 7.0 | 0.00 | 0.00 | 0.00 | 45 | 1014.5 |
| 20260503175901 | 62 | 178 | 6.1 | 7.8 | 0.00 | 0.00 | 0.00 | 45 | 1014.6 |
| 20260503174901 | 64 | 192 | 6.1 | 11.3 | 0.00 | 0.00 | 0.00 | 42 | 1014.5 |
| 20260503173902 | 62 | 115 | 6.1 | 9.6 | 0.00 | 0.00 | 0.00 | 45 | 1015.1 |
| 20260503172901 | 62 | 166 | 7.8 | 10.4 | 0.00 | 0.00 | 0.00 | 45 | 1015.4 |
| 20260503171901 | 62 | 190 | 7.0 | 10.4 | 0.00 | 0.00 | 0.00 | 45 | 1015.4 |
| 20260503170901 | 62 | 178 | 7.0 | 7.0 | 0.00 | 0.00 | 0.00 | 46 | 1015.4 |
| 20260503150901 | 57 | 167 | 6.1 | 6.1 | 0.00 | 0.00 | 0.00 | 56 | 1017.6 |
| 20260503130902 | 49 | 207 | 5.2 | 5.2 | 0.00 | 0.00 | 0.00 | 71 | 1019.0 |
| 20260503080901 | 42 | 172 | 1.7 | 1.7 | 0.00 | 0.00 | 0.00 | 68 | 1019.2 |
| 20260503072902 | 42 | 178 | 1.7 | 1.7 | 0.00 | 0.00 | 0.00 | 67 | 1019.4 |
| 20260503071902 | 42 | 174 | 1.7 | 1.7 | 0.00 | 0.00 | 0.00 | 66 | 1019.5 |
| 20260503070901 | 42 | 178 | 1.7 | 1.7 | 0.00 | 0.00 | 0.00 | 65 | 1019.4 |
| 20260503054901 | 44 | 172 | 1.7 | 1.7 | 0.00 | 0.00 | 0.00 | 61 | 1019.9 |
| 20260503053901 | 44 | 172 | 1.7 | 1.7 | 0.00 | 0.00 | 0.00 | 61 | 1019.8 |
| 20260503052901 | 44 | 172 | 1.7 | 2.6 | 0.00 | 0.00 | 0.00 | 61 | 1019.8 |
| 20260503051902 | 44 | 172 | 0.9 | 1.7 | 0.00 | 0.00 | 0.00 | 62 | 1019.8 |
| 20260503050902 | 44 | 175 | 0.9 | 0.9 | 0.00 | 0.00 | 0.00 | 62 | 1019.8 |
| 20260503045901 | 44 | 173 | 0.9 | 0.9 | 0.00 | 0.00 | 0.00 | 61 | 1019.8 |
| 20260503044901 | 44 | 0 | 0.0 | 0.9 | 0.00 | 0.00 | 0.00 | 60 | 1019.8 |
| 20260503043902 | 45 | 180 | 0.9 | 1.7 | 0.00 | 0.00 | 0.00 | 59 | 1019.8 |
| 20260503042901 | 45 | 176 | 0.9 | 0.9 | 0.00 | 0.00 | 0.00 | 59 | 1019.8 |
| 20260503041902 | 45 | 180 | 0.9 | 1.7 | 0.00 | 0.00 | 0.00 | 58 | 1019.7 |
| 20260503040901 | 45 | 165 | 0.9 | 0.9 | 0.00 | 0.00 | 0.00 | 58 | 1019.7 |
| 20260503035901 | 45 | 169 | 0.9 | 1.7 | 0.00 | 0.00 | 0.00 | 57 | 1019.8 |
| 20260503034901 | 45 | 180 | 0.9 | 1.7 | 0.00 | 0.00 | 0.00 | 58 | 1019.9 |
| 20260503033901 | 45 | 0 | 0.0 | 0.0 | 0.00 | 0.00 | 0.00 | 59 | 1020.0 |
| 20260503032901 | 45 | 0 | 0.0 | 0.0 | 0.00 | 0.00 | 0.00 | 56 | 1020.0 |
| 20260503031901 | 44 | 0 | 0.0 | 0.0 | 0.00 | 0.00 | 0.00 | 59 | 1020.1 |
| 20260503030901 | 45 | 0 | 0.0 | 0.0 | 0.00 | 0.00 | 0.00 | 59 | 1020.1 |
| 20260503025901 | 45 | 0 | 0.0 | 0.0 | 0.00 | 0.00 | 0.00 | 59 | 1020.0 |
| 20260503024902 | 45 | 180 | 0.0 | 0.9 | 0.00 | 0.00 | 0.00 | 59 | 1020.0 |
| 20260503023902 | 45 | 0 | 0.0 | 0.0 | 0.00 | 0.00 | 0.00 | 58 | 1019.8 |
| 20260503022901 | 45 | 0 | 0.0 | 0.0 | 0.00 | 0.00 | 0.00 | 59 | 1019.8 |
| 20260503021902 | 46 | 0 | 0.0 | 0.0 | 0.00 | 0.00 | 0.00 | 57 | 1019.7 |
| 20260503020901 | 46 | 0 | 0.0 | 0.0 | 0.00 | 0.00 | 0.00 | 56 | 1019.7 |
| 20260503015901 | 47 | 0 | 0.0 | 0.0 | 0.00 | 0.00 | 0.00 | 56 | 1019.6 |
| 20260503014901 | 47 | 0 | 0.0 | 0.0 | 0.00 | 0.00 | 0.00 | 54 | 1019.4 |